This demonstration page uses our WeatherBlox Daily Observations layout. Learn more.

Left ArrowRight Arrow

44.8408, -93.29828

Hourly Observations for December 1, 2019

Temp ( °F °C ) Dew Point ( °F °C ) Humidity (%) Winds ( mph kmh ) Pressure ( in mb ) Visibility ( mi km ) Precip ( " mm )
12:00 am 00:00 Cloudy with Light Snow 32 0 29 -1.7 88 88 NNE 13 20 29.50 999 3 4 0.00 0.00
12:14 am 00:14 Cloudy with Light Snow 32 0 29 -1.7 88 88 NE 15 24 29.50 999 3 4 0.00 0.00
12:44 am 00:44 Cloudy 32 0 28 -2.2 85 85 NNE 15 24 29.47 998 9 14 0.00 0.00
12:53 am 00:53 Cloudy 32 0 28 -2.2 85 85 NE 14 22 29.48 998 10 16 0.00 0.00
1:53 am 01:53 Cloudy 31 -0.6 27 -2.8 85 85 NNE 17 28 29.49 999 10 16 0.00 0.00
2:02 am 02:02 Cloudy 31 -0.6 27 -2.8 85 85 NNE 15 24 29.53 1000 10 16 0.00 0.00
2:45 am 02:45 Cloudy with Light Snow 30 -1.1 27 -2.8 88 88 NNE 14 22 29.53 1000 2 3 0.00 0.00
2:53 am 02:53 Cloudy with Light Snow 30 -1.1 27 -2.8 88 88 NNE 14 22 29.51 999 2 3 0.00 0.00
3:01 am 03:01 Cloudy with Light Snow 30 -1.1 27 -2.8 88 88 NNE 12 19 29.56 1001 3 4 0.00 0.00
3:11 am 03:11 Cloudy with Light Snow 30 -1.1 27 -2.8 88 88 NNE 17 28 29.56 1001 3 5 0.00 0.00
3:49 am 03:49 Cloudy 30 -1 27 -3 86 86 NNE 14 22 29.56 1001 8 13 0.00 0.00
3:53 am 03:53 Cloudy 30 -1.1 25 -3.9 82 82 NNE 14 22 29.52 1000 8 13 0.00 0.00
4:30 am 04:30 Cloudy with Light Snow 29 -1.7 26 -3.3 89 89 NNE 13 20 29.59 1002 2 3 0.00 0.00
4:53 am 04:53 Cloudy with Mist and Fog 29 -1.7 26 -3.3 89 89 NNE 12 19 29.55 1001 2 3 0.00 0.00
5:02 am 05:02 Cloudy with Light Snow 29 -1.7 26 -3.3 89 89 NNE 13 20 29.59 1002 2 3 0.00 0.00
5:46 am 05:46 Cloudy with Light Snow 29 -1.7 26 -3.3 89 89 NNE 16 26 29.62 1003 7 11 0.01 0.25
5:53 am 05:53 Cloudy with Light Snow 30 -1.1 26 -3.3 85 85 NNE 13 20 29.58 1002 6 10 0.01 0.25
6:27 am 06:27 Cloudy with Light Snow 30 -1.1 26 -3.3 85 85 N 16 26 29.62 1003 9 14 0.00 0.00
6:39 am 06:39 Cloudy 30 -1.1 25 -3.9 82 82 N 16 26 29.65 1004 7 11 0.00 0.00
6:53 am 06:53 Cloudy with Mist and Fog 30 -1.1 26 -3.3 85 85 N 15 24 29.61 1003 6 10 0.00 0.00
7:34 am 07:34 Cloudy 30 -1.1 25 -3.9 82 82 N 15 24 29.68 1005 7 11 0.00 0.00
7:53 am 07:53 Cloudy with Light Snow 30 -1.1 25 -3.9 82 82 N 13 20 29.66 1004 9 14 0.00 0.00
8:08 am 08:08 Cloudy with Light Snow 30 -1.1 26 -3.3 85 85 NNE 13 20 29.71 1006 2 3 0.00 0.00
8:17 am 08:17 Cloudy with Light Snow 30 -1.1 26 -3.3 85 85 NNE 15 24 29.71 1006 1 2 0.00 0.00
8:33 am 08:33 Cloudy with Light Snow 30 -1.1 27 -2.8 88 88 NNE 12 19 29.71 1006 2 2 0.01 0.25
8:48 am 08:48 Cloudy with Light Snow 30 -1 27 -3 86 86 N 13 20 29.71 1006 2 3 0.01 0.25
8:53 am 08:53 Cloudy with Light Snow 31 -0.6 27 -2.8 85 85 N 15 24 29.68 1005 2 3 0.01 0.25
9:04 am 09:04 Cloudy with Light Snow 31 -0.6 27 -2.8 85 85 NNE 16 26 29.74 1007 2 2 0.00 0.00
9:31 am 09:31 Cloudy with Light Snow 32 0 27 -2.8 82 82 N 14 22 29.74 1007 2 2 0.01 0.25
9:40 am 09:40 Cloudy with Light Snow 31 -0.6 28 -2.2 89 89 N 13 20 29.77 1008 1 2 0.01 0.25
9:53 am 09:53 Cloudy with Light Snow 32 0 28 -2.2 85 85 N 14 22 29.73 1007 1 2 0.01 0.25
10:02 am 10:02 Cloudy with Light Snow 32 0 29 -1.7 88 88 N 12 19 29.77 1008 1 1 0.01 0.25
10:10 am 10:10 Cloudy with Light Snow 30 -1.1 27 -2.8 88 88 N 15 24 29.77 1008 1 2 0.01 0.25
10:45 am 10:45 Cloudy with Light Snow 30 -1.1 25 -3.9 82 82 N 16 26 29.77 1008 2 2 0.01 0.25
10:53 am 10:53 Cloudy with Light Snow 30 -1.1 25 -3.9 82 82 N 16 26 29.74 1007 3 5 0.01 0.25
11:03 am 11:03 Windy with Snow Likely 30 -1.1 25 -3.9 82 82 N 20 31 29.77 1008 3 5 0.00 0.00
11:24 am 11:24 Windy with Snow Likely 30 -1.1 25 -3.9 82 82 N 20 31 29.80 1009 2 3 0.00 0.00
11:38 am 11:38 Cloudy with Light Snow 30 -1.1 25 -3.9 82 82 N 18 30 29.80 1009 2 2 0.00 0.00
11:53 am 11:53 Cloudy with Light Snow 30 -1.1 25 -3.9 82 82 N 16 26 29.77 1008 2 3 0.00 0.00
12:06 pm 12:06 Windy with Snow Likely 30 -1.1 25 -3.9 82 82 N 21 33 29.80 1009 1 2 0.00 0.00
12:14 pm 12:14 Windy with Snow Likely 30 -1.1 26 -3.3 85 85 N 22 35 29.80 1009 1 1 0.00 0.00
12:51 pm 12:51 Cloudy with Light Snow 28 -2 25 -4 86 86 N 18 30 29.80 1009 1 1 0.00 0.00
12:53 pm 12:53 Cloudy with Light Snow 29 -1.7 25 -3.9 85 85 N 17 28 29.78 1009 1 2 0.00 0.00
1:03 pm 13:03 Windy with Snow Likely 29 -1.7 25 -3.9 85 85 N 21 33 29.83 1010 2 3 0.01 0.25
1:13 pm 13:13 Cloudy with Light Snow 29 -1.7 24 -4.4 82 82 N 16 26 29.83 1010 9 14 0.01 0.25
1:53 pm 13:53 Cloudy 30 -1.1 23 -5 75 75 N 20 31 29.82 1010 9 14 0.01 0.25
2:03 pm 14:03 Cloudy with Light Snow 30 -1.1 23 -5 75 75 N 17 28 29.85 1011 5 8 0.00 0.00
2:13 pm 14:13 Windy with Snow Likely 29 -1.7 24 -4.4 82 82 N 20 31 29.85 1011 2 3 0.00 0.00
2:24 pm 14:24 Cloudy with Light Snow 29 -1.7 23 -5 78 78 N 17 28 29.85 1011 1 2 0.00 0.00
2:53 pm 14:53 Mostly Cloudy with Light Snow 28 -2.2 24 -4.4 85 85 N 15 24 29.87 1012 1 1 0.00 0.00
3:11 pm 15:11 Mostly Cloudy with Snow 28 -2.2 24 -4.4 85 85 N 17 28 29.91 1013 1 1 0.00 0.00
3:24 pm 15:24 Cloudy with Light Snow 28 -2.2 24 -4.4 85 85 N 14 22 29.94 1014 1 2 0.01 0.25
3:53 pm 15:53 Cloudy with Light Snow 28 -2.2 23 -5 81 81 N 15 24 29.92 1013 2 2 0.01 0.25
3:57 pm 15:57 Cloudy with Light Snow 28 -2.2 23 -5 81 81 N 15 24 29.94 1014 2 3 0.00 0.00
4:07 pm 16:07 Cloudy with Light Snow 28 -2.2 23 -5 81 81 N 16 26 29.97 1015 2 2 0.00 0.00
4:09 pm 16:09 Cloudy with Light Snow 28 -2.2 23 -5 81 81 N 16 26 29.97 1015 1 2 0.00 0.00
4:12 pm 16:12 Windy with Snow Likely 27 -2.8 23 -5 85 85 N 21 33 29.97 1015 3 5 0.00 0.00
4:37 pm 16:37 Mostly Cloudy 28 -2.2 22 -5.6 78 78 NNW 10 17 29.97 1015 10 16 0.01 0.25
4:53 pm 16:53 Mostly Cloudy 28 -2.2 22 -5.6 78 78 NNW 14 22 29.95 1014 10 16 0.01 0.25
5:53 pm 17:53 Mostly Cloudy 27 -2.8 20 -6.7 75 75 N 12 19 29.99 1016 10 16 0.00 0.00
6:53 pm 18:53 Partly Cloudy 26 -3.3 18 -7.8 71 71 N 12 19 30.02 1017 10 16 0.00 0.00
7:53 pm 19:53 Mostly Clear 25 -3.9 17 -8.3 72 72 NNW 13 20 30.06 1018 10 16 0.00 0.00
8:53 pm 20:53 Mostly Clear 24 -4.4 14 -10 65 65 N 13 20 30.08 1019 10 16 0.00 0.00
9:53 pm 21:53 Clear 22 -5.6 13 -10.6 68 68 NNW 12 19 30.09 1019 10 16 0.00 0.00
10:53 pm 22:53 Clear 21 -6.1 12 -11.1 68 68 NNW 10 17 30.10 1019 10 16 0.00 0.00
11:53 pm 23:53 Clear 19 -7.2 12 -11.1 74 74 NNW 10 17 30.13 1020 10 16 0.00 0.00

Powered by AerisWeather